#timestamp,LO_Frequency,Hit,StdDev 
1511136015.8,286047001.8,N
1511136035.6,286047001.5,N
1511136055.5,286047002.5,N
1511136075.3,286047002.6,N
1511136095.2,286047002.9,N
1511136115.9,286047003.6,N
1511136135.7,286047004.6,N
1511136155.6,286047005.1,N
1511136175.4,286047001.9,N
1511136195.2,286047003.2,N
1511136215.1,286047004.3,N
1511136216.0,286047004.3,N
1511136235.8,286047001.4,N
1511136255.7,286047003.7,N
1511136275.5,286047004.1,N
1511136295.3,286047001.9,N
1511136315.2,286047001.7,N
1511136335.0,286047002.2,N
1511136335.9,286047002.2,N
1511136355.8,286046999.8,N
1511136375.6,286047000.3,N
1511136395.4,286047000.4,N
1511136415.3,286047002.2,N
1511136435.1,286047004.4,Y
1511136455.9,286046999.9,P
1511136475.7,286047000.4,N
1511136495.5,286046998.2,N
1511136515.4,286047001.4,N
1511136535.2,286047003.9,N
1511136555.1,286047001.9,N
1511136556.0,286047001.9,N
1511136575.8,286047000.2,N
1511136595.6,286046999.7,N
1511136615.5,286047001.7,N
1511136635.3,286047002.8,N
1511136655.1,286047004.9,Y
1511136675.9,286047006.5,P
1511136695.7,286047007.1,N
1511136715.6,286047005.4,N
1511136735.4,286047003.7,N
1511136755.2,286047001.3,N
1511136775.1,286047002.6,N
1511136776.0,286047002.6,N
1511136795.8,286046999.7,N
1511136815.7,286046998.4,N
1511136835.5,286046999.5,N
1511136855.3,286046997.9,N
1511136875.2,286046996.9,N
1511136895.9,286046997.4,N
1511136915.7,286046997.1,N
1511136935.6,286046997.6,N
1511136955.4,286046999.5,N
1511136975.3,286046999.0,N
1511136995.1,286047002.8,N
1511136996.0,286047002.8,N
1511137015.8,286047002.6,N
1511137035.7,286046998.3,N
1511137055.5,286046997.3,N
1511137075.3,286047000.2,N
1511137095.2,286047002.6,N
1511137115.0,286046998.8,N
1511137115.9,286046998.8,N
1511137135.8,286046999.2,N
1511137155.6,286046998.2,N
1511137175.4,286046998.2,N
1511137195.3,286047000.4,N
1511137215.1,286047000.7,N
1511137235.9,286047004.1,N
1511137255.7,286047007.3,Y
1511137275.5,286047008.6,P
1511137295.4,286047005.1,N
1511137315.2,286047005.0,N
1511137335.1,286047010.1,Y
1511137336.0,286047010.1,P
1511137355.8,286047005.5,N
1511137375.6,286046999.9,N
1511137395.5,286046998.8,N
1511137415.3,286046996.8,N
1511137435.1,286046996.2,N
1511137455.9,286046995.5,N
1511137475.7,286046995.9,N
1511137495.6,286046995.7,N
1511137515.4,286046995.0,N
1511137535.2,286046994.2,N
1511137555.1,286046993.0,N
1511137556.0,286046993.0,N
1511137575.8,286046992.7,N
1511137595.7,286046992.3,N
1511137615.5,286046993.9,N
1511137635.3,286046997.3,N
1511137655.2,286046993.3,N
1511137675.0,286046992.3,N
1511137675.9,286046992.3,N
1511137695.7,286046992.0,N
1511137715.6,286046994.4,N
1511137735.4,286046991.8,N
1511137755.3,286046993.4,N
1511137775.1,286046994.7,N
1511137795.8,286046996.4,N
1511137815.7,286046996.4,N
1511137835.5,286046992.4,N
1511137855.4,286046990.6,N
1511137875.2,286046991.3,N
1511137895.0,286046994.7,N
1511137895.9,286046994.7,N
1511137915.8,286046994.1,N
1511137935.6,286046991.9,Y
1511137955.5,286047002.0,P
1511137975.3,286047005.5,N
1511137995.1,286047004.1,N
1511138015.9,286047003.6,N
1511138035.7,286047000.0,N
1511138055.5,286046999.0,N
1511138075.4,286046999.6,N
1511138095.2,286046997.5,N
1511138115.1,286046995.5,N
1511138116.0,286046995.5,N
1511138135.8,286046995.8,N
1511138155.6,286046997.8,N
1511138175.5,286046999.3,N
1511138195.3,286046996.8,N
1511138215.1,286046996.5,N
1511138235.9,286047005.7,N
1511138255.7,286047006.1,N
1511138275.6,286047009.3,N
1511138295.4,286047011.6,N
1511138315.2,286047009.6,N
1511138335.1,286047010.6,N
1511138336.0,286047010.6,N
1511138355.8,286047013.2,N
1511138375.7,286047013.8,N
1511138395.5,286047012.1,N
1511138415.3,286047015.5,N
1511138435.2,286047013.8,N
1511138455.0,286047009.6,N
1511138455.9,286047009.6,N
1511138475.7,286047006.6,N
1511138495.6,286047005.6,N
1511138515.4,286047003.9,N
1511138535.3,286047002.3,N
1511138555.1,286047000.4,N
1511138556.0,286047000.4,N
1511138575.8,286047000.7,N
1511138595.7,286047000.4,N
1511138615.5,286046999.0,N
1511138635.4,286047000.5,N
1511138655.2,286047000.7,N
1511138675.0,286047001.2,N
1511138675.9,286047001.2,N
1511138695.8,286046998.2,N
1511138715.6,286046998.3,N
1511138735.5,286046998.5,N
1511138755.3,286046998.7,N
1511138775.1,286046996.5,N
1511138795.9,286046994.9,N
1511138815.7,286046995.1,N
1511138835.6,286046997.9,N
1511138855.4,286047002.8,N
1511138875.2,286047002.0,N
1511138895.1,286047002.0,N
1511138896.0,286047002.0,N
1511138915.8,286046999.9,N
1511138935.6,286047001.9,N
1511138955.5,286047001.6,N
1511138975.3,286047002.2,N
1511138995.2,286047000.0,N
1511139015.9,286047000.9,N
1511139035.7,286046999.1,N
1511139055.6,286047000.7,N
1511139075.4,286046999.9,N
1511139095.3,286047000.3,N
1511139115.1,286047000.6,N
1511139116.0,286047000.6,N
1511139135.8,286046998.2,N
1511139155.7,286046996.7,N
1511139175.5,286046999.4,N
1511139195.4,286046998.7,N
1511139215.2,286047002.1,N
1511139235.0,286047005.7,N
1511139235.9,286047005.7,N
1511139255.8,286047005.6,N
1511139275.6,286047004.4,N
1511139295.5,286047001.7,N
1511139315.3,286046998.8,N
1511139335.1,286046997.1,N
1511139355.9,286046995.9,N
1511139375.7,286046997.6,N
1511139395.5,286046997.2,N
1511139415.4,286046997.6,N
1511139435.2,286046996.1,N
1511139455.1,286046999.3,N
1511139456.0,286046999.3,N
1511139475.8,286046998.2,N
1511139495.6,286046998.2,N
1511139515.5,286046998.2,N
1511139535.3,286046998.2,N
1511139555.1,286047000.1,N
1511139575.9,286047002.4,N
1511139595.7,286047000.8,N
